• In Latvia
  • List of Countries
  • For 7 days
  • Water Temperature
  • Satellite Maps
  • Weather Map
  • Weather Widgets
  • user-avatar
    Login

    Hourly Weather Podgornyy

    Today, 26 September, Wednesday

    Time Temperature Precipitation Wind Pressure Humidity
    00:00 +14°C° 0.4 mm 2 mps 748 mmHg 87%
    01:00 +14°C° 0.4 mm 2 mps 748 mmHg 87%
    02:00 +13°C° 0.4 mm 2 mps 748 mmHg 87%
    03:00 +13°C° 0.4 mm 2 mps 749 mmHg 87%
    04:00 +13°C° 0.2 mm 2 mps 749 mmHg 86%
    05:00 +13°C° 0.2 mm 2 mps 749 mmHg 85%
    06:00 +13°C° 0.2 mm 2 mps 749 mmHg 85%
    07:00 +13°C° 0.1 mm 2 mps 750 mmHg 80%
    08:00 +14°C° 0.1 mm 2 mps 750 mmHg 76%
    09:00 +14°C° 0.1 mm 2 mps 750 mmHg 72%
    10:00 +16°C° 0 mm 2 mps 751 mmHg 64%
    11:00 +17°C° 0 mm 2 mps 751 mmHg 56%
    12:00 +18°C° 0 mm 2 mps 751 mmHg 48%
    13:00 +18°C° 0 mm 3 mps 751 mmHg 47%
    14:00 +18°C° 0 mm 3 mps 751 mmHg 46%
    15:00 +18°C° 0 mm 3 mps 751 mmHg 44%
    16:00 +17°C° 0 mm 3 mps 751 mmHg 48%
    17:00 +16°C° 0 mm 2 mps 751 mmHg 51%
    18:00 +15°C° 0 mm 2 mps 751 mmHg 55%
    19:00 +15°C° 0 mm 2 mps 752 mmHg 57%
    20:00 +14°C° 0 mm 2 mps 752 mmHg 59%
    21:00 +13°C° 0 mm 2 mps 753 mmHg 61%
    22:00 +13°C° 0 mm 2 mps 753 mmHg 64%
    23:00 +12°C° 0 mm 2 mps 753 mmHg 66%

    Tomorrow, 27 September, Thursday

    Time Temperature Precipitation Wind Pressure Humidity
    00:00 +12°C° 0 mm 2 mps 753 mmHg 68%
    01:00 +11°C° 0 mm 1 mps 753 mmHg 70%
    02:00 +11°C° 0 mm 1 mps 753 mmHg 72%
    03:00 +10°C° 0 mm 1 mps 753 mmHg 74%
    04:00 +10°C° 0 mm 1 mps 753 mmHg 75%
    05:00 +10°C° 0 mm 1 mps 753 mmHg 76%
    06:00 +9°C° 0 mm 1 mps 753 mmHg 77%
    07:00 +11°C° 0 mm 1 mps 753 mmHg 71%
    08:00 +13°C° 0 mm 2 mps 753 mmHg 64%
    09:00 +15°C° 0 mm 2 mps 753 mmHg 57%
    10:00 +16°C° 0 mm 2 mps 753 mmHg 53%
    11:00 +18°C° 0 mm 2 mps 752 mmHg 48%
    12:00 +19°C° 0 mm 2 mps 752 mmHg 43%
    13:00 +20°C° 0 mm 2 mps 752 mmHg 42%
    14:00 +20°C° 0 mm 2 mps 752 mmHg 41%
    15:00 +21°C° 0 mm 2 mps 751 mmHg 39%
    16:00 +19°C° 0 mm 2 mps 751 mmHg 44%
    17:00 +18°C° 0 mm 2 mps 751 mmHg 48%
    18:00 +16°C° 0 mm 2 mps 751 mmHg 53%
    19:00 +15°C° 0 mm 2 mps 751 mmHg 55%
    20:00 +14°C° 0 mm 2 mps 752 mmHg 58%
    21:00 +12°C° 0 mm 1 mps 752 mmHg 60%
    22:00 +12°C° 0 mm 1 mps 752 mmHg 62%
    23:00 +11°C° 0 mm 1 mps 752 mmHg 64%

    Day after tomorrow, 28 September, Friday

    Time Temperature Precipitation Wind Pressure Humidity
    00:00 +10°C° 0 mm 1 mps 752 mmHg 66%
    01:00 +9°C° 0 mm 0 mps 752 mmHg 67%
    02:00 +9°C° 0 mm 0 mps 752 mmHg 68%
    03:00 +8°C° 0 mm 0 mps 752 mmHg 69%
    04:00 +8°C° 0 mm 0 mps 751 mmHg 69%
    05:00 +8°C° 0 mm 0 mps 751 mmHg 69%
    06:00 +9°C° 0 mm 1 mps 751 mmHg 70%
    07:00 +11°C° 0 mm 1 mps 751 mmHg 63%
    08:00 +14°C° 0 mm 1 mps 751 mmHg 56%
    09:00 +16°C° 0 mm 1 mps 751 mmHg 49%
    10:00 +19°C° 0 mm 1 mps 751 mmHg 45%
    11:00 +20°C° 0 mm 2 mps 750 mmHg 42%
    12:00 +23°C° 0 mm 2 mps 750 mmHg 39%
    13:00 +23°C° 0 mm 2 mps 749 mmHg 39%
    14:00 +24°C° 0 mm 2 mps 749 mmHg 38%
    15:00 +24°C° 0 mm 2 mps 748 mmHg 38%
    16:00 +23°C° 0 mm 2 mps 748 mmHg 43%
    17:00 +20°C° 0 mm 2 mps 748 mmHg 48%
    18:00 +19°C° 0 mm 2 mps 747 mmHg 53%
    19:00 +19°C° 0 mm 1 mps 747 mmHg 56%
    20:00 +18°C° 0 mm 1 mps 747 mmHg 59%
    21:00 +15°C° 0 mm 1 mps 747 mmHg 62%
    22:00 +15°C° 0 mm 1 mps 747 mmHg 64%
    23:00 +15°C° 0 mm 1 mps 747 mmHg 66%

    29 September, Saturday

    Time Temperature Precipitation Wind Pressure Humidity
    00:00 +14°C° 0 mm 1 mps 747 mmHg 67%
    01:00 +14°C° 0 mm 1 mps 747 mmHg 69%
    02:00 +14°C° 0 mm 1 mps 747 mmHg 70%
    03:00 +14°C° 0 mm 1 mps 746 mmHg 71%
    04:00 +13°C° 0 mm 1 mps 746 mmHg 72%
    05:00 +13°C° 0 mm 1 mps 746 mmHg 72%
    06:00 +13°C° 0 mm 1 mps 746 mmHg 73%
    07:00 +15°C° 0 mm 1 mps 746 mmHg 67%
    08:00 +19°C° 0 mm 1 mps 746 mmHg 61%
    09:00 +21°C° 0 mm 1 mps 746 mmHg 54%
    10:00 +23°C° 0 mm 1 mps 746 mmHg 50%
    11:00 +24°C° 0 mm 1 mps 745 mmHg 47%
    12:00 +26°C° 0 mm 1 mps 745 mmHg 43%
    13:00 +26°C° 0 mm 2 mps 745 mmHg 42%
    14:00 +27°C° 0 mm 2 mps 745 mmHg 41%
    15:00 +27°C° 0 mm 2 mps 744 mmHg 40%
    16:00 +26°C° 0 mm 1 mps 744 mmHg 46%
    17:00 +24°C° 0 mm 1 mps 744 mmHg 51%
    18:00 +22°C° 0 mm 1 mps 744 mmHg 57%
    19:00 +22°C° 0 mm 1 mps 744 mmHg 60%
    20:00 +21°C° 0 mm 1 mps 745 mmHg 63%
    21:00 +19°C° 0 mm 2 mps 745 mmHg 65%
    22:00 +20°C° 0 mm 1 mps 745 mmHg 67%
    23:00 +19°C° 0 mm 1 mps 745 mmHg 68%

    30 September, Sunday

    Time Temperature Precipitation Wind Pressure Humidity
    00:00 +19°C° 0 mm 1 mps 745 mmHg 70%
    01:00 +18°C° 0 mm 1 mps 745 mmHg 70%
    02:00 +18°C° 0 mm 1 mps 745 mmHg 70%
    03:00 +18°C° 0 mm 1 mps 745 mmHg 71%
    04:00 +18°C° 0 mm 1 mps 745 mmHg 71%
    05:00 +16°C° 0 mm 1 mps 745 mmHg 71%
    06:00 +16°C° 0 mm 1 mps 745 mmHg 71%
    07:00 +19°C° 0 mm 1 mps 745 mmHg 66%
    08:00 +21°C° 0 mm 1 mps 745 mmHg 60%
    09:00 +23°C° 0 mm 1 mps 746 mmHg 55%
    10:00 +25°C° 0 mm 2 mps 746 mmHg 50%
    11:00 +27°C° 0 mm 2 mps 745 mmHg 45%
    12:00 +29°C° 0 mm 3 mps 745 mmHg 41%
    13:00 +29°C° 0 mm 3 mps 745 mmHg 40%
    14:00 +29°C° 0 mm 3 mps 745 mmHg 39%
    15:00 +30°C° 0 mm 3 mps 745 mmHg 39%
    16:00 +28°C° 0 mm 3 mps 745 mmHg 44%
    17:00 +27°C° 0 mm 3 mps 745 mmHg 50%
    18:00 +25°C° 0 mm 3 mps 745 mmHg 56%
    19:00 +24°C° 0 mm 3 mps 745 mmHg 57%
    20:00 +23°C° 0 mm 4 mps 745 mmHg 58%
    21:00 +22°C° 0 mm 4 mps 745 mmHg 59%
    22:00 +21°C° 0 mm 4 mps 745 mmHg 60%
    23:00 +21°C° 0 mm 4 mps 745 mmHg 61%

    1 October, Monday

    Time Temperature Precipitation Wind Pressure Humidity
    00:00 +20°C° 0 mm 3 mps 744 mmHg 63%
    01:00 +20°C° 0.1 mm 3 mps 744 mmHg 62%
    02:00 +19°C° 0.1 mm 3 mps 744 mmHg 62%
    03:00 +19°C° 0.1 mm 3 mps 744 mmHg 62%
    04:00 +19°C° 0.2 mm 3 mps 744 mmHg 63%
    05:00 +19°C° 0.2 mm 3 mps 744 mmHg 64%
    06:00 +19°C° 0.2 mm 3 mps 744 mmHg 65%
    07:00 +20°C° 0 mm 3 mps 744 mmHg 63%
    08:00 +22°C° 0 mm 3 mps 744 mmHg 61%
    09:00 +24°C° 0 mm 3 mps 744 mmHg 59%
    10:00 +26°C° 0 mm 3 mps 744 mmHg 53%
    11:00 +28°C° 0 mm 3 mps 743 mmHg 47%
    12:00 +30°C° 0 mm 3 mps 743 mmHg 41%
    13:00 +30°C° 0 mm 3 mps 743 mmHg 41%
    14:00 +31°C° 0 mm 3 mps 743 mmHg 40%
    15:00 +32°C° 0 mm 4 mps 743 mmHg 40%
    16:00 +29°C° 0 mm 4 mps 743 mmHg 47%
    17:00 +27°C° 0 mm 4 mps 742 mmHg 54%
    18:00 +25°C° 0 mm 3 mps 742 mmHg 61%
    19:00 +24°C° 0 mm 3 mps 742 mmHg 64%
    20:00 +22°C° 0 mm 3 mps 743 mmHg 68%
    21:00 +21°C° 0 mm 3 mps 743 mmHg 71%
    22:00 +21°C° 0 mm 3 mps 742 mmHg 71%
    23:00 +20°C° 0 mm 3 mps 742 mmHg 71%
    Show more